This is the latest recevied weather packets stored in our database for station/object K5NWZ. If no packets are shown the sender has not sent any weather packets the latest 1 day(s).
| Time | Temp. | Humidity | Pressure | Rain* | Wind** | Luminosity | Snow |
|---|---|---|---|---|---|---|---|
| 1777980056 | 1.11° C | 95% | 1023.3 hPa | 1.78 mm | 0.89 m/s, 323° | 0 W/m² | - |
| 1777979755 | 1.11° C | 95% | 1023.2 hPa | 0 mm | 1.79 m/s, 305° | 0 W/m² | - |
| 1777979452 | 0.56° C | 95% | 1023.2 hPa | 0 mm | 0.89 m/s, 346° | 0 W/m² | - |
| 1777979148 | 0.56° C | 95% | 1023.3 hPa | 1.27 mm | 0.89 m/s, 321° | 0 W/m² | - |
| 1777978845 | 1.11° C | 95% | 1023.1 hPa | 1.27 mm | 0.89 m/s, 317° | 0 W/m² | - |
| 1777978542 | 1.11° C | 95% | 1023.1 hPa | 0 mm | 0.89 m/s, 326° | 0 W/m² | - |
| 1777978237 | 1.11° C | 95% | 1023 hPa | 0 mm | 1.34 m/s, 291° | 0 W/m² | - |
| 1777977930 | 1.11° C | 94% | 1023 hPa | 0 mm | 0.45 m/s, 300° | 0 W/m² | - |
| 1777977627 | 1.11° C | 94% | 1022.8 hPa | 0 mm | 0.89 m/s, 3° | 0 W/m² | - |
| 1777977324 | 1.11° C | 94% | 1023 hPa | 1.78 mm | 1.34 m/s, 305° | 0 W/m² | - |
| 1777977021 | 1.67° C | 94% | 1022.8 hPa | 1.78 mm | 1.79 m/s, 313° | 0 W/m² | - |
| 1777976718 | 1.67° C | 94% | 1022.6 hPa | 1.27 mm | 0.45 m/s, 324° | 0 W/m² | - |
| 1777976415 | 1.67° C | 94% | 1022.8 hPa | 3.05 mm | 1.79 m/s, 316° | 0 W/m² | - |
| 1777976114 | 1.67° C | 94% | 1022.7 hPa | 3.05 mm | 0.89 m/s, 311° | 0 W/m² | - |
| 1777975809 | 2.22° C | 94% | 1022.7 hPa | 3.05 mm | 1.34 m/s, 306° | 0 W/m² | - |
| 1777975507 | 2.22° C | 94% | 1022.7 hPa | 3.05 mm | 1.34 m/s, 310° | 0 W/m² | - |
| 1777975203 | 2.22° C | 94% | 1022.7 hPa | 3.05 mm | 1.34 m/s, 330° | 0 W/m² | - |
| 1777974900 | 2.78° C | 94% | 1022.5 hPa | 1.78 mm | 0.89 m/s, 330° | 0 W/m² | - |
| 1777974595 | 2.78° C | 94% | 1022.6 hPa | 0 mm | 1.34 m/s, 2° | 0 W/m² | - |
| 1777974293 | 2.78° C | 94% | 1022.5 hPa | 0 mm | 3.13 m/s, 306° | 0 W/m² | - |
| 1777973989 | 2.78° C | 94% | 1022.6 hPa | 1.27 mm | 0.89 m/s, 298° | 0 W/m² | - |
| 1777973685 | 2.78° C | 94% | 1022.5 hPa | 0 mm | 1.34 m/s, 310° | 0 W/m² | - |
| 1777973382 | 2.78° C | 94% | 1022.4 hPa | 1.78 mm | 1.79 m/s, 323° | 0 W/m² | - |
| 1777973080 | 3.33° C | 94% | 1022.3 hPa | 1.78 mm | 1.34 m/s, 271° | 0 W/m² | - |
| 1777972778 | 3.89° C | 94% | 1022.5 hPa | 0 mm | 3.13 m/s, 322° | 0 W/m² | - |
* Rain latest hour (hover to see other rain measurements)
** Current wind speed in m/s (hover to see current wind gust speed)